Location: Newark
(42.9858°N, 0.6717°E)
Time: 07:08:16
(UTC+00:00)

Envisat - Pass Details

Date: 24 October 2019
Orbit: 764 x 766 km, 98.1° (Epoch: 17 November)

Event Time Altitude Azimuth Distance (km) Brightness Sun altitude
Rises 18:19:40 0° 177° (S) 3,218 6.2 -15.0°
Reaches altitude 10° 18:22:00 10° 182° (S) 2,296 5.5 -15.4°
Maximum altitude 18:26:58 56° 260° (W) 912 3.7 -16.3°
Drops below altitude 10° 18:31:59 10° 338° (NNW) 2,312 5.7 -17.2°
Sets 18:34:21 0° 343° (NNW) 3,242 6.5 -17.7°
